Skagway, AK

6:37 AM AKDT on April 23, 2017 (GMT -0800)
Skagway

Weather History for PAGY - September, 2011

Change the Weather History Date:

Sunday, September 11, 2011

  Actual Average Record
Temperature  
Mean Temperature 46 °F -  
Max Temperature 57 °F 54 °F 69 °F (1983)
Min Temperature 37 °F 43 °F 30 °F (1970)
Degree Days  
Heating Degree Days 19    
Moisture  
Dew Point 42 °F    
Average Humidity 83    
Maximum Humidity 97    
Minimum Humidity 64    
Precipitation  
Precipitation 0.00 in - - ()
Sea Level Pressure  
Sea Level Pressure 30.21 in    
Wind  
Wind Speed 2 mph (NE)    
Max Wind Speed 10 mph    
Max Gust Speed -    
Visibility 10 miles    
Events      
Averages and records for this station are not official NWS values.
T = Trace of Precipitation, MM = Missing Value Source: NWS Daily Summary

Daily Weather History Graph

Daily Weather History Graph

Search for Another Location

Airport or City:

Trip Planner

Search our weather history database for the weather conditions in past years. The results will help you decide how hot, cold, wet, or windy it might be!

Date:

Astronomy

Sep. 11, 2011 Rise Set
Actual Time 6:20 AM AKDT 7:33 PM AKDT
Civil Twilight 5:38 AM AKDT 8:15 PM AKDT
Nautical Twilight 4:45 AM AKDT 9:07 PM AKDT
Astronomical Twilight 3:45 AM AKDT 10:07 PM AKDT
Moon 6:45 PM AKDT (9/11) 5:51 AM AKDT (9/11)
Length of Visible Light 14h 37m
Length of Day
13h 13m
Full, 100% of the Moon is Illuminated
Sep 11
Full
Sep 12
Full
Sep 20
Last Quarter
Sep 27
New
Oct 3
First Quarter

Hourly Weather History & Observations

Time (AKDT) Temp. Windchill Dew Point Humidity Pressure Visibility Wind Dir Wind Speed Gust Speed Precip Events Conditions
12:53 AM 42.1 °F - 39.9 °F 92% 30.30 in 10.0 mi Calm Calm - N/A   Clear
1:53 AM 41.0 °F 39.0 °F 39.9 °F 96% 30.30 in 10.0 mi NE 3.5 mph - N/A   Clear
2:53 AM 39.9 °F - 39.0 °F 97% 30.30 in 10.0 mi Calm Calm - N/A   Clear
3:53 AM 39.9 °F 37.8 °F 37.9 °F 93% 30.30 in 10.0 mi NE 3.5 mph - N/A   Clear
4:53 AM 39.0 °F 35.7 °F 37.9 °F 96% 30.28 in 10.0 mi NE 4.6 mph - N/A   Clear
5:53 AM 39.0 °F 35.7 °F 37.0 °F 93% 30.29 in 10.0 mi NE 4.6 mph - N/A   Clear
6:53 AM 37.9 °F 35.5 °F 37.0 °F 97% 30.29 in 10.0 mi NNE 3.5 mph - N/A   Clear
7:53 AM 39.9 °F - 37.9 °F 93% 30.28 in 10.0 mi Calm Calm - N/A   Clear
8:53 AM 42.1 °F 38.4 °F 39.0 °F 89% 30.28 in 10.0 mi NE 5.8 mph - N/A   Clear
9:53 AM 46.9 °F - 41.0 °F 80% 30.26 in 10.0 mi NE 3.5 mph - N/A   Clear
10:53 AM 48.9 °F - 43.0 °F 80% 30.25 in 10.0 mi Calm Calm - N/A   Clear
11:53 AM 53.1 °F - 43.0 °F 69% 30.22 in 10.0 mi SSW 3.5 mph - N/A   Clear
12:53 PM 51.1 °F - 42.1 °F 71% 30.19 in 10.0 mi SSW 5.8 mph - N/A   Clear
1:53 PM 50.0 °F - 44.1 °F 80% 30.18 in 10.0 mi SW 6.9 mph - N/A   Clear
2:53 PM 52.0 °F - 43.0 °F 71% 30.15 in 10.0 mi SSW 10.4 mph - N/A   Clear
3:53 PM 55.0 °F - 43.0 °F 64% 30.14 in 10.0 mi SW 5.8 mph - N/A   Clear
4:53 PM 55.0 °F - 43.0 °F 64% 30.12 in 10.0 mi Calm Calm - N/A   Clear
5:53 PM 55.9 °F - 44.1 °F 64% 30.12 in 10.0 mi Calm Calm - N/A   Clear
6:53 PM 52.0 °F - 45.0 °F 77% 30.12 in 10.0 mi Calm Calm - N/A   Clear
7:53 PM 50.0 °F - 45.0 °F 83% 30.14 in 10.0 mi Calm Calm - N/A   Clear
8:53 PM 50.0 °F - 44.1 °F 80% 30.14 in 10.0 mi Calm Calm - N/A   Clear
9:53 PM 48.0 °F - 44.1 °F 86% 30.13 in 10.0 mi Calm Calm - N/A   Clear
10:53 PM 48.0 °F - 44.1 °F 86% 30.13 in 10.0 mi NE 3.5 mph - N/A   Clear
11:53 PM 46.0 °F - 43.0 °F 89% 30.13 in 10.0 mi Calm Calm - N/A   Clear